User: anonymous
Location: Unspecified
(0.0000°N, 0.0000°E)
Time: 19:27:32
(UTC+02:00)
Language:

Cosmos 1980 Rocket - Orbit

View from above orbital plane
View from above orbital plane
View from above satellite
View from above satellite

Ground track
Ground track

The orbit data is extracted from the following two-line orbital elements,

1 19650U 88102B   14109.49457141 -.00000144  00000-0 -49103-4 0  2636
2 19650 070.9994 282.9172 0012724 147.2146 275.7606 14.15659220312579
Epoch (UTC): 19 April 2014 11:52:10
Eccentricity: 0.0012724
inclination: 70.9994°
perigee height: 831 km
apogee height: 849 km
right ascension of ascending node: 282.9172°
argument of perigee: 147.2146°
revolutions per day: 14.15659220
mean anomaly at epoch: 275.7606°
orbit number at epoch: 31257

The dashed part of the orbit path shows where the satellite is in the earth's shadow,  

DLR